Theta_e
286 286 286 286 286 286 285 285 285 285 284 284 285 285 285 285 285 286 286 286 287 287 287 286 286 286 285 285 284 284 284 283 283 283 282 282 282 282 281 281 281 281 281 281 281 281 281 280 280 279 279 279 279 279 279 280 280 280 280 281 281 281 282 282 283 283 283 283 283 283 283 283 283 283 283 283 283 283 284 284 285 285 284 285 285
286 286 286 286 286 285 285 285 285 284 285 285 285 285 286 286 287 287 287 287 287 287 287 286 286 286 285 285 284 284 283 283 282 282 282 281 281 281 281 281 281 281 281 281 280 280 280 279 279 279 278 278 278 278 278 279 279 279 280 280 280 280 281 281 281 282 282 282 282 282 282 283 283 283 283 283 282 282 282 283 284 284 285 285 285
286 286 286 286 285 285 285 285 285 285 285 285 286 286 287 287 287 287 287 287 286 286 286 286 285 285 285 284 284 283 283 282 282 281 281 281 280 280 280 280 280 280 280 280 280 279 279 278 278 278 278 277 277 278 278 278 278 278 279 279 279 279 279 280 280 280 281 281 281 281 281 282 282 282 282 282 282 282 282 282 283 284 284 284 285
285 285 285 285 285 285 285 285 285 285 286 286 287 287 287 287 287 286 286 286 285 285 285 285 285 284 284 284 283 283 282 281 281 280 280 280 280 279 279 279 279 279 279 279 278 278 278 278 278 277 277 277 277 277 277 277 277 277 278 278 278 278 278 279 279 279 280 280 280 281 281 281 281 281 281 281 281 282 282 282 283 283 283 284 284
285 285 285 285 285 285 285 285 285 286 286 287 287 287 287 287 286 286 285 285 284 284 284 284 284 284 283 283 283 282 282 281 280 280 279 279 279 278 278 278 278 278 277 277 277 277 277 277 277 276 276 276 276 276 277 276 276 277 277 277 277 278 278 278 278 279 279 279 280 280 280 280 280 280 280 280 280 281 281 282 282 282 283 283 284
285 285 285 285 285 285 285 286 286 286 286 287 287 287 286 286 286 285 285 284 284 283 283 283 283 283 283 283 282 282 281 280 280 279 279 278 278 278 278 277 277 277 276 276 276 276 276 276 276 276 276 276 276 276 276 276 276 276 276 276 277 277 277 277 278 278 278 278 279 279 279 279 279 279 279 279 280 280 280 281 281 282 282 283 284
285 285 285 285 285 285 286 286 286 286 287 287 287 286 286 285 285 285 284 284 283 283 282 282 282 282 282 282 282 281 281 280 279 279 279 278 278 277 277 276 276 276 276 276 276 276 276 276 275 275 275 275 275 275 275 275 276 276 276 276 276 276 276 277 277 277 277 277 277 278 278 278 278 278 278 279 279 280 280 281 281 281 282 282 283
285 285 285 285 285 286 286 286 286 286 287 287 286 286 285 285 285 285 284 284 283 282 281 281 281 281 281 281 281 281 280 279 279 278 278 277 277 277 276 276 276 276 276 276 276 275 275 275 275 275 275 275 274 274 275 275 275 275 275 275 275 275 275 275 275 275 275 275 276 276 276 276 277 277 277 278 278 279 279 279 279 279 280 280 281
285 285 285 285 286 286 286 286 286 286 287 286 286 285 285 284 284 285 284 284 282 281 281 281 281 281 281 281 281 280 279 279 278 278 277 277 276 276 275 275 275 275 275 275 275 275 275 275 274 274 274 273 273 273 273 274 274 274 274 274 274 274 274 274 274 274 274 274 275 275 275 275 276 276 276 276 277 277 277 277 277 277 278 278 278
285 285 285 286 286 286 286 286 286 286 286 286 285 285 284 284 284 284 284 283 282 281 280 280 280 280 280 280 280 279 279 278 278 277 277 276 276 275 275 275 274 274 275 275 275 275 275 274 274 274 273 272 272 272 272 272 273 273 273 274 274 274 274 273 273 273 274 274 274 274 275 275 275 275 275 275 276 276 276 276 276 276 277 277 277
285 285 285 286 286 286 286 286 286 286 286 285 285 284 284 284 284 284 284 283 282 281 280 280 280 279 279 279 279 278 278 277 277 277 276 276 275 275 274 273 273 274 274 274 275 274 274 274 273 273 272 272 272 272 271 272 272 273 273 273 273 273 273 273 273 273 273 273 273 274 274 274 274 274 275 275 275 275 275 275 276 276 276 277 277
285 285 285 286 286 286 286 286 286 286 285 285 284 284 284 284 284 284 284 283 281 280 280 280 279 279 279 278 278 278 277 277 277 276 276 275 275 274 274 273 273 273 274 274 274 274 274 273 273 272 272 272 272 271 271 271 271 271 272 272 272 272 272 273 273 273 273 273 273 273 273 273 274 274 274 274 275 275 275 275 275 276 276 277 277
286 285 286 286 285 286 286 286 286 285 285 285 284 284 283 283 283 283 283 282 281 280 280 279 279 278 278 278 278 277 277 276 276 276 275 275 275 274 273 273 273 273 273 273 273 273 272 272 272 272 272 271 271 271 271 271 271 271 271 271 271 271 272 272 272 273 273 273 273 273 273 273 274 274 274 274 274 275 275 275 276 276 276 277 277
286 286 286 286 286 286 286 286 285 285 285 284 284 283 283 283 283 283 283 282 281 280 279 279 278 278 277 277 277 277 276 276 276 275 275 275 274 273 273 273 273 273 272 272 272 272 271 271 271 271 271 271 271 271 271 271 271 271 271 271 271 271 272 272 272 273 273 273 273 273 273 274 274 274 274 274 274 275 275 275 276 276 276 277 277
286 286 286 286 286 286 286 285 285 285 285 284 284 283 283 283 283 283 282 282 281 280 279 279 278 277 277 277 277 276 276 276 275 275 275 274 274 273 272 272 272 271 271 271 271 271 271 271 271 271 271 271 271 271 271 271 272 272 272 272 272 272 272 273 273 273 273 273 274 274 274 274 274 274 274 274 274 275 275 275 276 276 277 277 277
286 286 286 286 286 286 286 285 285 285 284 284 283 283 283 282 282 282 282 281 280 279 279 278 278 277 277 276 276 276 276 275 275 274 274 274 273 273 272 271 270 270 270 270 270 270 270 270 270 271 271 271 271 271 272 272 272 273 273 273 273 273 273 274 274 274 274 274 274 274 275 275 275 275 275 275 275 276 276 276 276 277 277 277 277
286 286 286 287 287 286 286 285 285 285 284 283 283 283 282 282 281 282 281 281 280 279 278 278 277 277 276 276 276 275 275 275 274 274 274 273 273 272 271 270 270 270 270 270 270 270 270 271 271 271 271 271 271 272 272 273 273 274 274 274 274 274 274 275 275 275 275 275 275 276 276 276 276 276 276 277 277 277 277 277 277 277 277 277 277
288 288 288 288 287 287 286 285 285 284 284 283 283 282 281 281 281 281 281 280 279 279 278 277 277 277 276 276 275 275 275 274 274 274 273 273 273 272 270 270 270 270 270 270 270 271 271 271 271 271 271 271 272 272 273 274 274 274 275 275 275 275 275 275 275 275 276 276 276 276 276 276 276 276 276 277 277 277 277 277 277 277 276 277 276
289 289 289 288 288 287 286 286 285 284 284 284 283 282 281 281 281 281 280 279 279 278 277 277 277 276 276 275 275 274 274 274 273 273 273 273 272 271 270 270 270 270 270 271 271 271 271 271 271 272 272 272 273 273 274 275 275 275 275 275 275 275 275 276 276 276 276 276 276 276 276 276 276 276 276 276 276 276 276 276 276 276 276 276 276
289 289 288 288 287 287 286 286 285 285 284 283 282 281 281 281 280 280 279 279 278 278 277 277 276 276 275 275 274 274 274 273 273 273 273 273 272 271 270 270 270 270 271 271 271 271 271 272 272 272 273 273 273 274 274 275 275 275 276 276 276 276 276 276 276 276 276 276 276 276 276 276 276 276 276 276 276 276 276 276 276 276 276 276 276
288 288 288 287 287 287 286 285 285 284 283 282 281 280 280 280 280 279 278 278 278 277 277 276 276 275 275 274 274 273 273 273 273 273 273 272 271 270 270 270 270 271 271 271 272 272 272 272 272 273 273 273 274 274 275 275 276 276 276 276 276 276 276 276 275 275 275 275 276 276 275 275 275 275 275 275 275 275 276 276 276 276 276 276 276
288 288 287 287 287 286 286 285 284 283 282 281 280 280 280 279 279 278 278 278 277 276 276 276 275 274 274 274 273 273 273 273 272 272 272 272 271 270 270 271 271 271 272 272 272 273 273 273 273 273 273 273 274 275 276 276 276 276 275 275 275 275 275 275 274 274 274 274 274 274 274 274 274 274 274 274 274 274 274 275 275 275 275 275 275
288 287 287 287 286 286 285 284 283 282 281 280 280 279 279 278 278 278 277 276 276 275 275 275 274 273 273 273 273 273 272 272 271 271 272 271 270 270 271 272 272 272 272 272 273 273 273 273 273 273 273 274 275 275 275 275 274 274 274 274 274 273 273 273 273 272 272 272 272 272 272 272 273 273 273 273 273 273 273 274 273 273 273 274 274
288 287 287 286 286 285 284 283 282 281 280 280 279 278 278 277 277 277 276 275 275 274 274 273 273 272 272 271 271 272 272 271 271 271 271 270 270 270 271 272 272 272 273 273 273 273 273 273 273 274 274 274 274 274 273 272 272 272 272 272 272 271 271 270 270 270 270 270 270 271 271 271 271 272 272 272 272 273 273 273 273 273 273 273 273
287 286 286 286 285 284 283 282 281 280 280 279 278 278 277 277 276 276 275 275 274 273 273 273 272 271 271 270 270 270 270 270 269 269 270 269 269 270 271 271 272 272 273 273 273 273 273 273 274 274 273 272 272 271 270 270 269 269 270 269 269 269 269 269 269 269 269 269 269 270 270 270 271 271 271 272 272 272 272 272 272 273 273 273 273
286 285 285 285 284 283 282 281 280 279 279 278 278 277 277 276 275 275 274 274 273 272 272 272 271 271 270 269 269 269 268 268 268 268 269 269 270 270 271 271 272 272 272 272 273 273 273 273 272 272 271 270 269 268 268 268 267 267 267 267 267 267 267 267 267 267 268 268 269 269 269 270 270 270 271 271 271 272 272 272 273 273 273 273 274
285 285 284 284 283 282 281 280 280 279 278 277 277 276 276 275 274 274 274 273 272 272 271 271 270 270 269 268 267 267 267 267 268 268 269 270 270 271 271 271 272 272 272 272 272 272 271 271 270 269 268 268 267 267 267 266 266 266 266 266 266 266 266 266 266 266 267 267 267 268 268 269 269 270 270 270 271 271 272 272 273 273 274 274 274
284 284 284 283 282 282 281 280 279 278 278 277 276 276 275 275 274 274 274 273 272 271 270 270 270 269 268 267 267 267 267 268 268 269 270 270 271 272 271 271 272 272 272 272 271 270 270 269 268 267 266 266 266 266 265 265 265 265 265 265 265 265 265 265 266 266 266 266 267 267 267 267 268 269 269 270 270 271 272 272 273 274 274 274 275
283 283 282 282 281 280 279 278 278 277 276 276 275 275 275 274 274 273 273 272 271 270 270 270 270 269 268 267 267 268 268 268 269 269 270 271 272 272 271 272 272 272 272 271 270 269 268 267 266 266 265 265 265 265 265 265 265 265 264 264 265 265 265 265 265 266 266 266 266 266 267 267 268 268 269 269 270 271 272 272 273 274 274 274 275
281 280 280 280 280 279 278 277 276 275 275 274 274 274 273 273 272 272 272 271 271 270 270 270 269 269 268 268 269 268 269 269 270 270 271 271 271 271 272 272 272 272 270 269 268 267 266 266 265 265 264 264 264 264 264 264 264 264 264 264 264 265 265 265 265 266 266 266 266 267 267 267 268 268 269 269 270 271 271 272 273 273 274 274 275
279 279 279 279 278 278 277 276 275 274 273 273 273 272 272 271 271 271 271 270 270 270 269 268 269 269 269 269 269 269 269 270 270 270 270 270 270 271 272 272 271 270 269 268 267 266 265 265 264 264 264 264 264 264 264 264 263 264 264 264 264 264 265 265 265 265 266 266 266 267 267 268 268 268 269 269 270 270 271 271 272 273 273 274 275
278 278 277 277 276 275 275 274 274 273 273 272 271 271 270 270 270 270 270 269 269 269 268 268 268 268 269 269 269 269 269 269 269 269 270 270 270 271 271 271 270 268 268 267 266 266 265 264 264 264 263 263 263 263 263 263 263 263 263 263 264 264 265 265 265 265 266 266 267 267 268 268 268 268 269 269 269 270 270 271 271 272 273 273 274
277 276 275 274 274 273 274 273 273 273 272 271 270 270 269 269 269 269 269 268 268 268 268 268 268 268 268 268 268 268 268 268 268 269 269 269 270 270 270 269 268 267 267 266 266 266 265 264 263 263 263 263 263 263 263 263 263 263 263 263 264 264 264 265 265 265 266 267 267 267 268 268 268 268 268 269 269 269 270 270 271 271 272 272 273
275 274 274 274 274 274 273 273 272 272 271 270 270 269 268 268 268 268 268 268 268 267 267 268 268 267 267 267 267 267 267 267 268 268 269 269 270 269 269 268 267 266 266 266 266 265 264 263 263 263 262 262 262 262 262 262 262 262 263 263 264 264 264 265 265 266 266 267 267 267 267 267 268 268 268 268 269 269 269 270 270 270 271 272 273
273 273 273 273 273 273 273 272 271 270 270 269 268 268 267 267 267 266 266 267 267 267 267 268 268 267 267 267 267 266 266 266 267 267 268 269 269 268 267 266 266 266 266 266 266 265 263 262 262 262 262 262 262 262 262 262 262 262 263 263 264 264 264 265 266 266 267 267 267 267 267 267 268 268 268 268 268 268 269 269 269 270 271 271 272
272 272 272 272 272 271 271 270 270 269 269 268 267 266 266 265 265 265 264 264 265 266 267 268 268 267 267 267 266 266 265 265 266 267 268 268 267 267 266 265 265 265 265 265 265 264 264 263 262 262 262 262 262 262 262 262 262 262 262 263 263 264 264 265 266 266 267 267 267 267 267 268 268 268 268 268 268 268 268 269 269 270 270 271 272
271 271 271 271 270 270 269 269 268 267 267 266 266 265 265 264 264 263 263 263 263 264 265 266 267 267 267 266 265 265 265 264 265 266 267 266 266 266 265 264 264 264 265 264 264 263 263 263 263 263 262 262 262 262 262 262 262 262 262 263 263 264 264 265 266 266 266 266 267 267 267 268 268 268 268 268 268 268 268 269 269 269 270 271 271
270 269 269 269 269 268 267 267 266 265 265 265 264 264 263 263 263 262 262 262 262 262 263 264 265 266 267 266 265 264 264 264 264 265 265 265 265 265 264 264 264 264 264 264 263 263 262 263 263 263 262 262 262 262 261 261 261 262 262 263 263 263 264 265 265 266 266 266 267 267 267 267 268 268 268 268 268 268 268 268 269 269 270 270 271
268 268 268 267 267 266 266 265 265 264 264 264 263 263 262 262 261 261 261 261 261 261 261 262 264 265 266 266 265 264 264 264 264 264 264 264 264 264 263 263 264 264 264 264 263 263 263 263 263 263 262 262 262 262 261 261 261 261 261 262 263 263 264 265 265 266 266 266 266 267 267 267 268 268 268 268 268 268 268 268 269 269 269 270 270
267 267 266 266 265 264 264 264 264 264 263 263 262 262 261 261 261 260 260 260 260 260 260 261 263 265 265 265 264 263 262 262 263 263 263 263 264 264 263 263 263 264 263 264 263 263 263 263 263 263 263 262 262 262 262 261 261 261 261 261 262 263 264 264 265 265 266 266 266 266 267 267 267 268 268 268 268 268 268 268 268 269 269 270 270
265 265 265 264 264 263 263 263 263 262 262 262 262 261 261 260 260 260 260 259 259 259 259 260 263 264 265 264 263 262 262 262 263 263 263 263 263 263 263 263 263 264 264 264 263 263 263 263 263 263 263 263 263 263 262 261 261 260 260 261 261 262 263 264 264 265 265 265 265 266 266 267 267 267 267 267 268 268 268 268 268 269 269 269 270
264 264 264 263 263 262 262 261 261 261 261 261 261 260 260 260 259 259 259 259 259 259 259 260 262 264 264 263 262 262 262 262 263 262 262 262 263 263 263 263 263 263 263 263 263 263 263 263 263 263 263 263 263 263 262 262 261 261 260 261 261 261 262 263 264 264 265 265 265 265 266 267 267 267 267 267 267 267 267 268 268 268 269 269 270
263 263 263 262 262 261 261 261 261 260 260 260 260 260 260 259 259 259 258 258 259 259 258 259 260 262 263 263 262 261 261 262 262 262 262 262 262 263 263 263 263 263 263 263 263 262 262 262 262 262 263 263 263 262 262 262 261 261 261 261 260 260 261 262 263 264 264 264 265 265 265 267 267 267 266 267 267 267 267 267 268 268 269 269 270
263 262 262 261 261 261 260 260 260 260 260 260 260 259 259 259 258 258 258 258 258 258 258 258 259 260 261 262 262 261 261 261 261 262 262 262 262 262 263 263 263 263 263 262 262 262 262 262 262 262 262 263 263 262 262 262 261 261 261 261 261 261 261 261 262 263 263 264 264 264 265 266 267 266 266 266 266 266 267 267 267 268 268 269 269
262 262 261 261 260 260 260 260 260 260 259 259 259 259 258 258 258 258 258 258 258 258 258 258 258 258 260 261 261 261 261 262 261 261 261 262 262 262 262 263 262 262 262 262 262 262 262 262 262 262 262 263 263 262 262 262 261 261 261 261 261 262 262 262 262 262 263 263 264 264 265 266 266 266 265 265 265 266 266 267 267 267 268 268 269
261 261 261 260 260 260 260 259 259 259 259 258 258 258 257 257 257 257 257 257 258 258 258 257 258 258 259 260 261 261 261 261 262 261 262 262 262 262 262 262 262 262 262 262 262 262 262 262 261 262 262 262 262 262 262 262 261 262 262 262 262 262 262 262 262 262 263 264 264 264 265 266 266 265 265 265 265 265 266 266 266 267 267 268 269
260 260 260 259 259 259 259 259 258 258 258 258 257 257 257 257 257 257 257 257 257 257 257 257 257 258 259 260 261 261 261 261 261 261 262 262 262 262 262 262 262 262 262 262 262 262 262 262 261 261 261 262 262 262 262 262 262 262 262 262 262 262 262 262 262 263 263 264 264 264 265 266 266 265 265 265 265 265 265 265 266 266 267 267 268
260 259 259 259 259 258 258 258 258 257 257 257 257 257 257 256 256 257 257 257 257 257 257 258 258 258 259 260 261 261 261 261 261 261 262 262 262 262 262 261 261 262 262 262 262 262 261 261 261 261 261 262 262 262 262 262 262 262 262 262 262 262 262 262 262 263 264 264 264 264 265 266 265 265 265 265 265 264 265 265 265 266 266 267 267
260 259 259 259 259 259 258 258 257 257 257 257 256 256 256 256 257 257 257 257 257 257 258 258 258 259 260 260 261 261 261 261 261 261 261 262 262 262 261 261 261 261 261 261 262 262 262 262 262 261 261 262 262 262 262 262 262 262 262 262 262 262 262 262 262 263 263 264 264 265 266 266 265 265 265 266 265 265 265 265 265 265 266 266 266
260 260 259 259 259 259 258 258 257 257 257 257 257 257 257 257 257 257 257 257 258 258 258 259 259 259 260 260 260 260 261 261 261 261 261 261 261 261 261 261 261 261 261 261 262 262 262 262 262 262 262 261 261 261 261 261 262 262 262 262 262 262 262 262 262 263 263 264 264 265 266 266 265 265 265 266 266 265 265 265 265 265 265 265 266
259 259 259 259 259 259 258 258 258 258 258 258 257 257 257 257 257 257 258 258 258 259 259 259 259 260 260 260 260 260 260 260 260 261 261 261 261 261 261 261 261 261 261 261 262 262 262 262 262 262 261 261 261 261 261 261 261 261 262 262 262 262 262 262 262 262 263 264 265 265 266 266 265 265 265 265 265 265 265 265 265 265 265 265 265
Wind_Speed
23 23 22 21 21 20 19 18 17 16 15 13 11 10 9 8 8 7 7 7 6 7 7 8 9 9 10 11 12 13 14 14 15 15 16 16 16 16 17 17 17 17 17 17 18 18 18 18 17 17 17 16 15 13 11 11 11 11 11 11 13 12 12 15 15 20 24 21 21 23 20 21 31 35 36 41 43 39 32 27 26 27 30 32 33
24 24 23 22 21 21 20 19 17 16 14 12 10 9 9 8 7 6 5 4 4 4 5 6 7 8 9 11 12 13 14 14 15 15 15 15 16 16 16 16 16 17 17 17 17 17 18 17 16 16 17 17 15 14 13 12 11 12 12 12 14 13 12 15 16 18 24 24 22 24 21 17 23 26 22 28 39 43 41 38 30 24 25 27 29
24 24 24 23 22 21 20 19 17 15 14 13 11 10 10 8 7 6 5 3 2 3 4 5 7 8 9 11 12 13 14 14 14 15 15 15 15 15 15 15 15 16 16 16 17 17 17 17 15 15 16 17 16 14 13 12 12 13 14 14 15 16 14 15 17 18 22 27 25 24 22 18 19 23 21 22 29 34 37 38 34 28 26 25 26
25 24 24 24 23 22 21 19 18 16 15 14 13 12 11 9 8 6 5 3 1 1 3 4 6 8 9 10 12 13 14 14 14 15 15 15 15 15 15 15 15 15 16 16 16 16 16 16 15 15 16 16 15 14 12 12 13 13 15 15 15 17 16 15 17 18 20 25 27 25 24 22 20 21 22 21 24 28 28 30 32 32 30 28 26
25 25 25 24 24 23 22 21 19 18 17 16 14 13 11 10 8 6 5 2 1 1 2 4 5 7 9 11 12 14 14 15 15 15 15 15 15 15 15 15 15 15 15 15 16 15 14 14 15 15 15 14 13 13 13 14 15 14 15 16 15 16 17 16 16 18 19 23 27 27 25 24 22 21 20 21 22 26 26 26 28 31 32 30 27
25 25 25 24 24 23 22 21 20 19 18 17 15 14 12 10 8 6 4 3 2 2 3 4 6 7 9 11 13 14 15 15 16 16 16 16 16 16 16 15 16 16 16 16 15 14 14 14 14 14 13 13 13 13 14 14 15 15 15 16 16 16 17 17 17 18 20 22 25 27 26 25 23 22 20 21 22 24 26 26 25 26 27 28 28
26 26 26 25 24 23 22 21 20 19 18 18 16 15 13 11 9 6 5 4 4 4 4 5 6 8 9 11 13 14 14 15 15 16 16 16 16 16 16 16 16 16 16 16 14 14 14 13 13 14 13 13 13 13 14 14 14 15 15 15 16 16 17 17 17 18 20 21 23 24 24 24 23 23 22 21 22 22 22 24 24 24 24 25 28
29 28 27 27 25 24 22 21 20 19 19 18 17 16 14 12 10 7 6 6 6 6 6 7 7 8 10 11 12 13 14 14 14 15 15 16 15 15 16 16 15 16 16 15 14 14 14 14 13 14 13 13 14 14 14 14 15 16 16 15 15 16 16 17 17 17 18 19 21 21 22 23 22 23 22 20 21 21 20 22 25 27 27 27 29
31 31 30 29 27 25 23 22 21 20 20 19 18 17 15 13 11 9 8 8 7 7 8 8 9 9 11 12 13 13 14 14 14 14 14 14 14 14 15 16 16 16 15 14 14 14 14 14 13 14 16 18 19 18 16 15 17 18 17 16 15 15 16 16 15 16 17 18 20 19 20 21 20 21 20 19 20 22 22 23 26 27 27 28 31
34 33 32 31 28 26 25 23 22 21 21 20 20 18 16 14 12 11 10 10 9 9 9 10 10 11 12 13 14 14 14 14 14 14 14 13 13 14 15 16 16 16 14 13 14 14 13 13 14 17 21 23 21 19 19 17 17 18 18 17 16 15 16 16 16 16 17 19 20 19 20 20 20 20 21 21 22 23 23 22 24 25 25 25 27
36 34 33 31 30 28 26 24 23 23 23 23 22 20 18 16 14 13 13 12 11 11 11 11 11 12 13 13 14 14 14 14 14 14 13 12 13 14 15 17 17 16 14 13 13 14 14 14 15 17 20 20 18 19 20 19 18 18 18 18 18 17 18 18 18 18 18 20 21 20 20 22 22 21 22 23 22 22 22 21 22 25 23 21 22
35 34 33 32 31 29 28 27 25 25 25 25 23 21 20 18 16 15 14 14 13 12 12 13 13 14 14 14 15 15 15 15 15 14 13 12 12 13 15 17 17 16 14 13 14 15 16 16 16 17 17 17 18 19 19 19 18 18 18 17 18 18 17 18 19 18 19 21 23 23 21 22 23 21 20 22 23 23 23 23 23 24 24 22 24
36 35 34 33 32 31 31 29 28 28 27 27 25 23 22 20 18 17 16 15 15 14 14 14 14 15 15 15 16 16 15 15 15 14 13 13 12 13 15 17 16 15 15 15 15 16 17 17 17 16 16 16 17 17 17 18 18 17 17 17 16 16 16 18 19 21 22 23 26 27 25 24 24 23 21 21 24 25 25 26 26 26 27 26 26
37 36 35 34 33 33 32 31 30 30 29 29 28 26 24 22 20 19 18 17 16 15 15 15 16 16 16 16 17 17 15 15 15 14 13 13 12 13 15 16 15 16 17 16 16 16 16 16 16 17 16 16 16 16 16 18 18 17 17 16 17 17 18 20 21 24 26 26 29 30 27 26 26 26 25 25 28 29 28 28 29 28 29 29 29
38 37 36 35 34 34 33 32 31 31 31 30 29 28 26 24 22 21 19 17 17 16 16 17 17 17 16 17 18 18 15 14 14 14 12 12 12 13 15 17 18 19 19 16 14 15 15 15 16 17 17 17 17 17 18 18 19 19 21 24 26 27 26 25 25 27 28 27 29 30 29 28 28 29 30 30 31 32 31 32 33 32 32 31 30
36 36 36 35 35 34 34 33 32 32 32 31 31 30 28 26 23 21 19 18 17 17 17 18 18 17 17 17 18 18 16 14 13 13 12 11 12 14 16 17 17 17 17 15 13 12 12 13 15 17 18 19 19 18 19 20 22 25 28 31 33 33 32 31 30 30 30 29 31 32 31 32 32 33 34 34 33 34 35 35 32 29 30 29 28
33 34 35 35 35 35 34 33 33 33 33 32 32 31 29 26 23 21 20 19 18 18 18 19 18 18 18 18 19 19 16 13 13 12 11 11 12 13 15 14 14 14 14 14 13 13 13 13 15 16 17 19 20 21 22 23 24 27 29 30 31 31 31 30 29 28 30 32 35 37 37 37 37 37 37 36 35 36 36 34 28 26 27 23 22
31 33 34 35 35 35 34 33 33 32 32 32 32 31 28 25 23 22 20 19 19 19 19 19 19 19 19 19 19 19 17 14 12 12 11 10 11 13 14 13 12 13 14 14 13 13 14 15 17 19 20 21 22 24 23 24 25 27 28 29 31 31 30 29 27 28 30 31 32 34 36 36 36 35 34 33 33 32 32 31 28 27 27 23 22
28 29 30 31 32 33 33 32 31 31 32 32 31 29 27 25 23 22 21 20 20 20 19 20 20 20 20 19 18 18 18 15 12 11 11 10 11 11 12 12 12 13 13 13 13 14 16 18 20 21 22 22 23 24 24 25 26 26 27 28 30 30 29 27 27 27 28 28 28 29 30 30 29 29 28 28 29 30 31 31 30 29 29 29 28
23 24 26 27 28 29 29 29 30 30 31 30 29 28 26 25 24 22 21 20 20 20 20 20 21 21 20 19 18 17 17 15 13 12 11 10 10 10 11 12 12 12 13 14 16 19 20 19 18 17 19 21 23 25 26 26 27 27 27 27 26 27 27 28 29 30 31 32 30 27 24 24 24 24 24 24 25 26 28 29 30 30 30 31 30
20 22 23 24 25 26 26 27 27 28 28 28 28 27 26 25 24 22 21 21 21 21 21 21 21 21 20 19 18 16 16 16 14 12 11 10 9 9 11 12 11 13 14 16 18 20 18 17 15 17 19 22 24 27 28 29 30 29 26 24 25 28 32 34 34 33 31 30 27 23 21 22 23 23 23 24 25 25 26 27 27 29 30 30 30
21 22 22 23 24 24 25 25 26 27 27 27 28 27 26 25 23 22 21 21 21 21 21 21 21 21 20 20 18 16 14 15 15 13 11 10 9 9 11 12 12 14 16 17 18 18 18 18 18 19 21 24 28 29 29 28 28 26 24 27 31 34 36 35 32 29 26 23 23 23 23 24 25 24 24 25 24 23 24 24 25 26 28 29 29
22 23 23 23 24 24 24 25 26 26 27 28 27 27 25 24 23 22 21 21 22 22 21 20 20 20 20 19 18 17 15 14 14 13 12 10 8 10 13 13 13 14 16 17 19 20 19 18 19 22 25 28 28 27 26 26 27 28 31 34 36 35 32 30 27 24 22 22 22 23 23 22 23 22 22 22 21 21 21 22 23 24 25 27 29
24 24 24 24 24 24 24 25 26 27 27 27 27 26 25 23 22 22 21 21 21 21 21 20 20 20 19 19 18 17 17 15 13 12 12 10 10 12 13 13 13 14 16 18 19 19 19 20 22 24 26 26 26 27 29 31 32 32 32 32 31 28 25 23 21 21 21 21 20 20 20 19 20 20 20 20 21 21 22 23 23 24 26 27 28
25 25 25 25 25 25 25 26 26 27 27 27 27 26 25 23 22 22 21 21 21 21 20 20 20 19 19 18 17 17 16 14 13 13 12 10 10 12 12 12 13 14 16 18 19 19 21 23 23 24 24 25 27 29 30 29 27 26 25 24 22 20 18 17 18 19 19 19 19 20 21 21 21 21 21 22 23 23 24 24 24 25 27 27 28
27 27 27 27 26 26 27 27 28 28 28 27 27 26 24 23 22 22 21 21 21 20 20 20 19 19 19 17 16 15 14 11 10 12 12 10 10 11 11 11 12 13 15 17 18 19 20 20 21 23 24 25 26 26 25 23 21 20 18 17 16 15 15 16 17 18 18 19 20 21 22 22 22 22 23 23 23 24 24 23 23 24 25 26 26
29 29 29 28 28 28 29 29 29 29 29 28 27 26 25 24 23 22 22 21 21 20 19 19 18 18 17 15 14 13 10 8 9 11 10 10 10 11 10 11 12 13 14 14 15 16 18 21 24 25 24 23 22 22 21 19 17 15 14 13 14 14 15 15 16 18 19 19 20 21 22 22 23 23 22 22 22 23 23 22 23 24 24 25 26
30 31 30 30 30 30 30 30 30 30 30 29 28 27 25 24 24 23 21 20 20 19 19 18 18 17 15 13 12 11 8 9 11 11 10 10 11 11 11 13 14 12 11 13 15 18 21 25 25 24 22 20 19 18 17 15 14 14 14 14 14 14 14 15 16 16 17 18 19 21 22 22 22 22 22 22 22 23 23 22 23 24 25 25 25
32 32 32 32 32 31 31 31 31 31 30 28 27 26 24 23 22 22 21 19 19 19 19 18 17 15 14 13 14 13 12 12 12 12 11 12 13 14 14 14 14 12 11 13 16 20 22 22 21 19 16 15 15 14 14 14 14 15 16 15 14 14 15 16 16 16 17 18 19 20 20 21 21 21 22 22 23 23 23 22 23 24 25 25 25
33 33 33 33 33 33 32 32 31 30 28 26 25 24 23 22 22 22 20 19 19 19 18 18 16 14 15 16 16 15 17 16 15 13 13 14 14 14 14 14 14 12 12 13 16 18 18 17 16 14 12 11 12 12 12 13 13 15 17 16 15 14 15 16 16 17 18 18 19 20 20 20 21 21 21 22 23 23 23 24 24 25 25 25 25
34 34 34 34 34 34 33 32 30 28 26 25 24 23 22 22 22 21 20 19 18 17 16 16 15 15 16 17 16 15 16 16 15 14 15 14 14 14 13 13 11 9 10 13 15 16 14 13 12 11 9 10 11 11 11 12 12 14 16 17 15 14 15 16 16 17 18 19 19 20 20 20 21 21 22 22 23 24 24 24 24 24 25 25 25
34 35 34 33 32 31 30 29 28 26 25 24 23 22 21 21 20 20 19 17 16 15 15 15 15 15 15 15 15 14 13 13 13 14 14 13 14 13 12 10 9 9 11 13 14 13 12 11 10 9 9 10 10 10 10 10 11 13 14 16 17 16 16 16 18 18 19 19 19 20 20 20 21 21 22 23 23 23 23 23 23 23 24 25 25
33 32 31 29 28 27 27 27 27 26 25 24 23 22 21 20 19 17 17 16 15 14 14 14 14 15 14 13 14 14 13 13 13 14 13 13 13 11 10 11 12 13 14 14 12 11 10 9 9 8 8 9 10 10 9 9 11 13 13 15 17 18 18 19 19 19 18 19 19 20 20 21 22 22 22 22 23 23 23 22 22 23 23 23 24
29 28 26 25 25 25 26 26 26 25 24 23 22 21 20 20 18 17 17 16 15 14 13 13 13 14 15 15 15 15 14 13 12 12 12 12 11 9 10 13 16 15 14 11 10 9 9 8 8 8 8 8 9 9 9 10 12 13 14 14 15 17 18 20 20 19 19 20 20 21 21 22 22 22 22 22 22 22 22 22 22 22 22 22 23
26 24 22 21 21 22 23 24 24 23 22 21 20 20 19 18 17 17 17 17 17 16 14 13 13 14 15 16 16 15 13 11 11 11 10 10 9 10 13 15 15 14 11 9 8 9 9 8 8 7 7 7 8 9 11 13 13 13 14 15 16 17 19 20 20 19 20 21 21 22 22 22 22 22 22 23 23 23 23 22 22 23 23 23 23
24 22 21 20 20 20 20 21 21 21 20 19 18 17 17 17 17 17 17 16 17 17 15 14 13 13 15 14 14 13 12 11 10 9 8 9 12 15 15 14 13 12 10 8 8 9 9 10 10 10 10 10 10 11 13 15 16 16 15 16 17 19 19 19 19 20 21 22 22 22 22 22 22 22 22 23 23 22 22 23 23 23 23 23 24
21 20 19 19 18 18 19 19 19 18 18 17 16 16 16 17 16 16 16 17 16 16 16 14 13 14 14 13 11 11 13 13 11 9 9 12 15 16 15 13 13 12 10 9 8 9 10 11 11 12 14 14 13 13 14 16 18 18 17 17 17 18 19 19 20 20 21 21 21 22 22 22 22 22 22 22 23 22 22 23 23 24 24 25 25
18 17 17 16 16 16 17 17 17 16 16 16 15 16 16 16 16 17 17 16 16 16 16 15 15 15 15 14 11 10 12 13 12 9 10 13 15 13 13 13 13 12 11 10 9 10 11 12 12 13 14 15 16 16 17 18 19 18 18 18 18 18 19 19 19 19 19 20 21 22 22 23 22 22 21 22 23 23 23 23 24 24 24 25 24
15 14 14 14 14 14 15 15 15 15 15 15 15 15 15 16 16 16 16 15 15 14 15 16 16 17 16 14 11 10 11 11 9 7 8 11 13 12 12 13 13 13 12 11 10 10 11 12 13 13 14 15 16 17 18 18 19 20 19 18 18 18 18 18 18 18 19 19 20 22 22 23 23 22 22 22 23 23 24 24 24 24 24 24 24
12 12 12 12 12 13 14 14 15 15 16 16 16 16 16 17 17 17 17 16 14 14 15 17 18 18 17 14 11 10 10 10 8 6 8 11 12 12 13 13 14 14 13 12 11 11 12 12 13 14 15 15 16 18 18 19 20 21 20 18 17 17 18 18 18 18 19 19 21 23 23 23 22 21 21 22 22 22 23 24 24 24 24 24 25
11 11 11 11 12 12 13 13 14 15 16 16 16 16 16 17 17 17 16 15 14 13 15 17 19 19 16 13 10 9 10 11 11 11 13 16 16 15 14 14 14 14 14 13 12 12 13 13 14 14 15 15 16 18 19 20 21 21 21 20 18 17 17 18 17 18 19 19 22 23 23 23 22 21 21 23 22 22 23 24 24 24 24 24 24
10 11 11 11 11 12 13 14 14 14 15 16 16 15 15 15 15 15 15 15 15 15 15 18 20 19 16 13 10 10 12 14 16 18 20 20 19 17 15 14 14 14 14 13 13 13 14 15 15 16 16 16 17 18 19 20 21 21 22 22 21 19 18 18 18 18 18 19 22 25 25 23 23 22 22 23 23 22 23 23 24 24 24 24 23
10 10 11 11 12 13 14 14 13 13 15 16 16 16 16 16 16 16 17 18 18 18 18 18 19 19 17 14 11 12 14 17 19 21 21 20 19 17 16 15 14 14 14 14 13 14 15 16 17 17 18 18 18 18 19 20 21 21 22 23 23 22 21 19 18 18 18 20 25 28 26 23 23 24 23 23 23 23 23 23 24 24 23 23 23
9 10 11 12 12 13 14 14 13 14 15 16 17 18 18 19 19 19 19 19 19 20 19 17 15 16 17 16 13 13 16 18 19 20 20 19 18 17 16 15 14 14 14 14 14 14 15 17 18 19 19 19 20 20 20 20 20 21 21 22 23 24 24 21 19 18 19 22 28 31 27 22 23 25 25 24 24 23 23 23 23 23 23 23 22
8 9 10 10 11 12 12 13 13 14 15 16 17 18 18 19 20 20 20 20 19 19 18 16 14 15 16 16 16 15 16 17 17 18 18 18 17 16 16 15 15 15 15 15 15 16 16 17 18 19 20 21 21 21 21 21 21 20 20 21 22 24 25 24 21 19 20 23 28 30 26 23 25 29 28 26 24 22 22 23 23 22 22 22 21
6 7 7 8 9 10 11 12 13 14 15 15 17 17 17 18 19 19 20 19 19 18 18 17 16 17 17 17 17 16 16 16 17 17 17 17 17 16 16 15 15 16 17 17 17 17 18 18 19 20 21 22 22 22 22 23 22 22 21 21 22 23 24 23 22 20 19 21 26 27 25 24 29 33 32 28 24 22 21 22 22 22 21 21 21
6 7 7 8 9 11 12 13 13 14 15 15 16 17 17 17 18 18 19 19 19 19 19 18 17 17 17 17 17 17 16 16 17 17 17 17 17 17 16 16 17 17 18 19 19 19 20 20 20 21 21 22 23 23 23 23 23 23 23 22 22 22 23 23 22 20 17 19 24 26 24 25 30 33 32 29 27 23 20 20 21 21 21 20 19
4 5 7 8 9 11 12 12 13 13 14 15 15 16 17 18 18 18 18 18 18 18 18 18 18 17 17 17 17 16 16 16 17 18 18 18 18 17 17 18 18 19 20 20 20 21 21 21 21 21 21 22 22 23 23 23 23 23 23 23 22 22 21 22 21 19 16 18 23 24 23 25 30 31 29 28 26 23 21 20 20 21 20 19 19
5 6 7 8 9 10 11 11 12 13 13 14 15 16 16 17 17 18 18 18 17 17 17 17 17 17 16 17 16 16 16 17 17 18 18 18 19 19 19 19 19 20 21 22 22 21 21 21 21 21 21 22 22 23 23 23 23 23 23 23 22 21 21 21 19 16 15 18 22 22 22 26 30 29 27 26 24 22 22 22 22 22 21 19 18
7 8 9 9 10 10 10 11 12 13 14 14 15 16 17 17 18 17 17 17 17 17 17 16 16 16 15 15 15 15 16 17 17 18 19 19 19 20 20 20 21 21 22 22 22 22 22 22 22 21 22 22 23 23 23 23 23 23 23 23 22 22 21 20 18 15 14 17 21 23 23 26 28 27 26 25 23 22 22 23 23 23 21 18 17
8 9 10 10 10 11 11 12 13 13 14 14 15 16 17 17 17 17 16 16 16 16 16 16 15 15 15 15 15 16 16 17 18 19 19 20 20 20 20 21 21 21 21 22 22 22 22 22 22 22 23 23 22 22 23 22 22 23 23 22 22 21 20 19 19 16 13 15 20 23 24 25 26 25 23 22 22 22 22 22 22 21 18 16 15
Wind_Direction
164 161 160 159 157 156 154 152 149 144 140 136 130 120 108 98 87 75 62 49 38 27 18 12 6 3 360 356 354 352 350 347 345 344 343 341 339 337 335 334 335 335 335 336 336 335 334 333 332 331 330 327 323 318 311 306 303 296 291 287 282 276 275 275 277 286 290 288 285 287 287 291 296 300 305 307 308 308 306 300 295 295 296 297 297
170 168 165 164 164 161 158 156 151 147 142 137 132 125 120 114 106 98 87 74 59 39 24 15 10 5 0 358 355 353 350 347 345 343 341 339 336 333 332 330 330 329 330 331 330 330 329 328 327 326 325 323 320 317 313 307 304 298 293 290 286 283 278 278 280 285 292 295 293 294 295 289 290 295 299 303 305 307 307 306 302 295 291 290 290
175 173 171 170 169 166 162 159 154 150 147 145 144 140 137 133 126 124 122 111 87 50 28 18 11 5 1 358 355 352 349 345 343 340 337 335 332 329 327 326 325 324 324 325 325 325 324 323 321 319 320 320 318 315 311 306 302 298 295 293 290 289 286 281 282 284 290 296 297 298 300 298 294 297 300 300 300 302 305 306 306 302 296 292 287
180 178 176 174 172 169 166 162 158 157 157 157 155 151 149 148 147 149 153 146 114 49 19 12 7 2 359 355 351 349 346 343 340 338 335 332 329 326 324 323 322 321 320 320 319 319 318 316 314 315 315 316 315 312 307 302 301 297 295 294 291 291 291 285 282 284 288 293 295 297 300 302 300 301 304 304 300 299 300 303 305 304 301 298 292
185 183 181 178 175 172 170 167 165 166 166 165 162 162 164 167 169 171 173 178 191 338 351 355 356 354 353 351 349 346 344 341 339 336 333 330 327 324 322 321 321 319 317 316 314 313 310 307 308 312 311 309 308 306 303 301 300 296 292 293 292 291 292 289 284 284 284 287 292 296 299 301 302 303 305 307 304 302 301 302 303 302 302 302 299
189 187 185 181 178 177 175 174 174 174 172 171 172 176 180 183 187 191 196 214 249 284 315 331 340 347 349 347 344 342 340 338 335 332 330 327 324 321 320 320 318 316 314 311 309 304 301 299 301 303 303 300 299 298 298 298 296 292 290 291 293 292 290 289 287 286 284 284 288 294 298 301 303 304 306 307 305 303 303 304 302 300 303 306 305
193 191 189 187 186 186 185 184 183 180 179 181 184 189 194 197 203 210 223 245 268 283 300 316 328 337 341 339 337 335 333 331 328 326 325 323 321 319 319 318 314 312 310 306 303 300 297 295 294 295 295 292 292 293 294 295 293 290 290 291 292 292 290 290 289 288 287 287 287 291 295 299 301 301 304 306 302 299 302 306 306 305 306 307 306
197 196 195 194 196 196 196 195 191 188 189 192 196 201 204 209 214 224 243 262 275 286 297 307 317 325 328 329 328 326 326 325 324 323 321 319 318 316 313 311 307 305 305 301 298 296 294 291 288 288 285 285 291 291 287 289 292 290 291 292 292 291 290 291 291 290 289 289 290 292 295 298 299 301 305 307 304 301 303 307 304 302 304 303 299
201 201 200 201 204 205 205 202 198 197 199 204 208 211 213 217 223 235 251 266 277 285 293 300 308 314 317 318 318 319 321 321 321 319 318 316 314 309 306 305 303 302 300 297 295 293 290 287 283 284 289 297 303 299 288 283 285 287 289 290 290 290 290 290 290 291 292 291 290 293 295 296 299 303 307 308 305 303 304 304 299 297 301 300 294
204 204 204 206 209 211 211 208 206 207 209 214 218 219 221 224 229 241 254 266 276 283 289 295 300 304 308 310 311 313 316 318 318 317 316 315 310 305 302 302 302 300 295 292 292 292 290 285 283 291 300 305 307 304 300 291 280 278 282 283 284 287 289 290 289 289 291 291 291 293 294 293 296 300 302 302 301 300 302 301 298 299 303 300 296
206 207 209 211 213 214 214 214 214 215 217 222 224 224 226 229 233 243 254 265 274 280 284 289 295 298 301 303 305 309 314 316 317 315 315 313 308 303 299 299 300 297 292 287 288 290 291 288 287 292 299 301 299 300 303 297 284 280 280 279 279 281 283 286 288 289 290 288 288 289 289 290 293 295 296 297 297 296 297 297 296 298 300 299 297
209 211 213 215 215 216 218 218 219 221 223 226 228 228 231 233 237 244 253 263 270 276 281 286 290 293 295 298 301 306 313 315 314 313 313 311 307 300 295 294 294 292 289 286 287 290 291 292 292 291 292 295 295 296 297 294 288 285 283 281 279 277 276 279 282 284 284 284 284 284 284 287 289 290 290 293 294 294 293 292 290 291 293 294 294
212 215 216 218 218 219 221 222 223 225 226 228 230 231 232 235 239 245 251 260 267 273 278 282 286 289 291 295 299 304 311 313 312 311 311 310 307 298 292 291 288 285 284 284 285 288 289 292 293 291 289 291 292 291 290 291 292 289 287 285 281 275 274 275 277 277 277 278 279 279 279 280 282 284 285 286 288 290 289 288 287 287 287 289 290
215 218 219 220 221 223 225 226 226 228 228 229 231 232 234 236 239 243 249 257 265 272 277 280 283 285 289 294 298 303 309 311 309 309 310 308 304 295 290 287 282 280 281 282 282 283 286 288 288 288 288 287 286 286 287 291 293 291 287 282 278 275 273 272 274 277 275 272 272 274 275 275 276 278 280 279 280 280 281 282 283 282 281 283 285
217 220 221 223 224 226 227 228 228 229 229 229 230 232 234 235 238 242 248 256 265 271 275 278 281 284 288 293 296 301 307 309 306 307 308 306 300 291 286 284 282 283 285 283 281 280 281 283 283 285 286 285 284 285 287 290 290 288 286 283 281 280 276 273 276 277 274 270 268 269 269 269 269 271 272 271 269 269 271 273 275 277 280 284 286
219 221 223 225 227 228 229 229 229 229 229 229 230 231 233 234 237 241 248 255 263 269 272 276 280 283 288 293 296 300 306 309 306 306 307 304 296 287 285 285 286 286 286 282 277 275 276 279 281 282 284 284 284 285 287 289 289 288 287 285 285 284 282 283 282 276 270 268 268 269 269 267 266 267 270 269 266 269 274 275 276 280 284 287 288
221 223 225 228 230 231 231 231 230 230 229 229 230 231 232 234 237 242 248 255 262 267 271 274 278 284 289 292 296 300 305 308 305 304 305 301 293 287 287 287 284 281 281 279 275 276 276 275 277 282 283 283 284 287 290 291 290 289 288 288 288 285 283 284 281 275 273 272 274 279 283 281 278 278 280 278 276 279 283 283 284 287 287 286 287
224 226 228 231 232 233 233 232 231 231 231 232 232 232 232 233 237 243 248 255 261 265 269 274 278 283 288 292 296 300 304 307 305 305 304 299 291 287 287 286 279 278 281 279 276 277 277 275 277 280 282 283 286 289 292 293 292 291 289 288 286 282 281 282 279 277 278 275 273 279 284 284 285 285 284 282 281 282 283 281 283 284 282 280 283
225 227 230 233 234 235 235 234 234 234 235 235 234 232 232 234 238 243 248 254 260 264 268 273 278 283 287 292 296 298 302 305 305 304 302 297 290 286 284 281 276 278 282 281 278 278 281 284 284 281 281 285 288 290 293 294 293 291 288 285 281 279 281 283 281 280 281 279 277 277 277 278 281 281 278 276 275 274 273 273 275 276 276 276 278
225 228 231 233 234 235 236 236 236 236 236 235 232 230 231 233 237 242 248 253 258 263 268 272 278 283 287 291 294 296 299 303 304 303 301 296 288 281 276 273 273 277 280 281 284 288 290 291 288 284 285 288 290 292 295 295 293 289 285 282 280 283 289 292 292 292 291 292 292 289 284 284 284 279 275 273 270 267 266 266 267 268 270 272 273
225 227 229 231 233 234 234 234 235 235 233 231 228 227 229 232 237 242 248 253 258 262 268 272 277 282 286 289 292 296 300 302 302 302 301 297 289 277 270 268 270 277 281 282 286 291 292 291 289 289 290 292 294 296 296 296 294 292 290 288 289 295 302 303 302 301 298 296 296 294 291 291 287 281 277 274 271 268 266 266 266 266 266 268 270
224 227 228 229 230 230 231 231 230 229 228 225 224 226 228 232 237 242 247 253 258 262 267 272 277 282 286 289 293 298 302 301 301 303 302 298 289 273 268 269 272 277 283 285 286 287 289 290 291 291 293 295 297 299 299 301 303 303 301 300 300 302 305 304 302 301 299 298 296 293 291 289 283 279 276 272 271 270 268 267 267 267 266 266 268
225 226 226 227 227 227 227 227 226 224 223 222 223 226 229 233 238 243 247 253 258 262 267 272 277 282 286 290 296 300 303 302 300 302 305 304 294 278 273 274 277 279 281 283 285 288 289 291 292 294 297 300 302 305 307 308 308 305 302 301 301 302 303 301 299 299 299 298 296 292 289 285 280 277 275 273 274 274 271 270 270 268 268 267 266
225 224 224 224 224 225 224 223 223 222 221 222 223 226 230 234 239 243 248 253 258 264 269 274 279 282 287 293 297 302 306 305 301 305 314 312 297 283 279 280 281 280 280 282 285 288 290 292 295 299 303 305 306 307 306 304 303 302 301 301 303 304 304 301 300 300 299 297 294 291 288 284 280 278 276 276 278 278 276 275 274 271 269 267 266
222 222 222 222 221 222 220 220 220 220 221 222 224 227 231 235 239 244 249 253 258 264 270 275 280 283 288 293 298 304 310 310 308 318 327 321 297 285 284 286 286 284 283 284 285 288 292 295 300 303 305 306 307 306 304 302 303 304 303 305 307 307 306 305 303 302 299 296 293 291 288 285 283 281 280 281 282 281 279 278 276 273 270 268 267
221 220 220 219 219 219 218 217 218 219 221 223 226 229 233 236 240 245 249 253 258 264 269 275 280 285 290 295 301 308 312 310 310 317 322 320 313 306 298 293 292 290 287 286 289 294 298 300 301 303 305 307 307 307 307 308 310 310 309 311 313 311 308 307 305 302 298 295 293 291 289 289 288 286 285 284 282 279 278 278 277 275 272 270 268
220 219 218 217 217 217 217 218 218 219 221 223 226 229 233 236 240 244 248 253 258 263 268 273 278 284 290 296 303 307 306 301 304 308 305 306 315 318 309 302 301 297 292 294 300 302 300 298 300 305 310 314 315 315 317 319 319 317 315 314 313 310 307 303 300 297 294 292 292 292 291 292 292 290 289 287 283 281 280 279 277 276 274 272 270
222 221 219 217 216 217 217 219 219 220 222 224 226 230 234 237 241 246 250 254 258 261 266 270 274 281 289 296 302 303 292 289 301 307 303 302 307 308 304 302 302 299 300 307 307 302 300 302 308 316 322 325 326 327 326 323 319 317 317 315 312 309 305 302 300 296 293 292 293 293 293 294 293 292 292 289 286 284 284 282 280 279 279 277 273
222 220 218 216 216 217 216 218 220 221 223 226 229 233 238 241 245 250 253 255 258 260 264 268 273 282 289 293 297 294 286 290 305 306 296 294 298 298 298 299 298 301 310 313 307 304 306 312 319 326 328 327 327 326 321 319 318 319 320 319 314 309 306 305 304 302 300 299 296 294 294 294 294 293 292 291 289 288 288 287 285 285 285 282 278
219 217 216 215 216 216 215 217 219 220 223 227 231 235 240 243 247 251 253 255 258 262 266 271 277 286 293 295 297 294 289 295 305 299 288 290 295 294 293 294 296 303 312 311 306 307 313 319 322 325 325 321 319 317 317 318 319 319 320 318 312 308 306 304 304 305 306 303 299 297 296 295 294 294 293 293 293 293 292 291 289 289 288 285 283
218 217 216 216 216 215 215 216 218 220 223 228 232 236 240 244 248 252 255 257 260 263 266 269 269 270 275 281 287 287 284 287 291 288 286 290 292 290 292 294 297 306 313 309 306 309 315 318 319 318 317 314 310 307 310 315 316 315 315 313 310 307 305 304 306 307 306 305 303 302 301 299 298 297 296 295 296 295 294 293 292 290 289 286 285
221 219 218 217 216 215 215 217 219 221 224 227 230 234 238 243 248 253 255 257 258 259 260 261 260 259 260 266 271 274 275 278 281 283 286 287 286 288 291 289 288 298 303 301 302 306 311 313 311 309 311 311 306 303 307 311 310 308 308 308 308 308 307 307 308 307 306 306 307 306 306 305 304 302 300 298 297 296 295 295 294 292 291 289 286
224 222 220 218 216 216 217 219 221 223 225 227 230 233 237 241 245 248 251 254 256 257 257 257 257 255 253 252 254 259 266 275 280 281 281 282 284 287 284 276 279 291 297 296 298 305 309 308 303 301 303 303 300 302 304 304 304 304 302 300 302 305 307 309 310 309 309 310 310 308 308 308 307 306 304 301 299 298 297 296 295 293 292 292 291
223 223 224 223 222 222 222 223 224 226 227 228 231 235 238 242 245 246 246 248 250 250 249 248 247 246 246 248 250 254 262 271 275 275 277 282 282 276 271 275 284 292 294 291 295 305 308 302 296 296 296 293 293 300 304 303 302 301 299 297 297 301 307 311 312 311 311 313 313 311 309 309 308 307 305 303 302 300 298 297 296 295 294 294 294
221 222 224 225 227 227 228 228 229 230 231 231 233 237 240 243 247 248 247 248 249 249 249 248 247 247 250 253 257 258 259 263 267 271 277 278 265 256 267 280 288 290 287 287 298 308 307 301 297 296 293 289 295 306 309 307 302 297 296 298 301 303 307 311 313 313 313 314 314 312 311 310 309 308 306 303 302 301 299 298 298 297 296 296 295
217 219 221 223 226 229 232 233 233 234 235 235 236 239 243 244 246 248 250 251 253 255 256 256 254 255 258 261 261 257 251 251 257 265 270 261 251 257 273 284 284 283 285 292 303 308 308 305 306 306 304 302 306 311 311 308 305 300 295 296 300 303 305 307 310 314 315 313 312 312 313 312 310 309 308 304 302 302 300 299 299 298 297 297 297
217 221 224 227 230 232 234 236 236 235 236 237 239 241 243 245 246 247 249 251 253 256 259 260 259 260 262 263 260 252 245 243 241 242 250 254 255 262 273 276 274 277 283 291 300 305 307 309 312 313 313 313 314 314 310 308 307 304 301 298 298 300 301 302 305 310 313 313 314 315 315 314 312 311 309 306 304 303 302 302 302 300 299 299 298
221 227 231 235 238 238 239 239 237 236 236 238 240 242 244 245 246 246 247 249 250 253 258 262 263 261 259 261 261 252 245 242 236 230 237 247 254 262 268 267 269 275 280 285 294 300 303 308 313 315 315 315 316 317 315 312 309 307 305 303 301 299 300 302 304 308 311 313 316 317 316 315 315 313 311 308 305 304 304 304 304 303 301 301 299
229 234 238 241 243 243 243 242 241 241 242 242 242 243 245 246 246 245 245 247 248 250 255 260 263 263 262 264 265 256 246 243 239 232 236 244 250 260 266 266 267 272 276 283 291 296 300 306 311 313 314 315 316 317 316 313 313 312 309 305 302 302 304 305 305 309 312 314 316 319 318 317 316 315 313 310 307 305 305 305 304 304 303 301 299
240 242 244 245 245 247 249 250 249 249 249 247 248 249 249 249 248 247 247 248 250 252 255 259 263 266 267 267 264 252 244 243 240 235 246 257 263 265 265 264 265 269 274 281 286 290 296 302 305 309 313 315 317 318 316 314 315 316 314 309 301 300 304 306 306 308 311 314 317 319 318 318 317 316 314 312 310 309 307 306 305 304 303 301 300
246 248 249 248 247 249 253 255 254 254 254 254 254 255 254 253 252 252 252 251 252 255 258 261 265 269 271 269 261 246 244 251 252 250 258 266 269 267 262 260 262 265 270 277 283 287 292 297 300 305 309 312 315 317 316 314 314 314 314 313 307 300 301 304 306 306 309 313 318 319 318 318 319 318 315 313 313 312 310 308 307 306 304 303 303
249 253 255 255 253 252 253 254 256 257 258 257 256 255 255 257 256 255 254 254 255 258 261 264 269 272 273 269 256 241 245 252 253 254 259 263 265 263 260 258 259 261 265 272 279 284 289 293 297 301 305 308 312 313 312 313 313 311 311 314 313 307 304 303 305 307 308 311 316 319 317 317 319 319 316 314 314 313 312 311 309 307 306 306 307
258 261 262 261 259 256 255 256 257 257 257 257 258 258 259 260 260 259 258 259 259 260 260 265 271 274 275 271 256 240 241 245 247 251 256 258 259 260 259 258 259 260 263 269 274 280 285 290 293 298 301 304 308 308 308 309 309 308 310 312 312 311 309 305 304 307 307 310 317 320 317 316 320 321 317 316 316 315 313 312 311 309 308 308 309
263 263 263 263 263 262 261 261 260 260 261 263 264 265 265 264 263 262 262 261 261 262 262 264 269 272 274 274 265 250 244 246 248 252 255 255 256 257 259 261 263 264 265 270 274 278 283 286 290 295 298 301 304 304 303 304 305 306 309 310 309 310 311 309 306 306 307 311 319 322 317 315 321 322 318 317 318 316 314 313 313 312 311 311 311
268 268 268 268 269 269 268 268 268 268 268 269 268 267 266 265 263 263 263 263 264 265 265 265 268 271 273 275 271 263 256 253 253 254 255 255 257 258 260 264 267 269 271 275 278 280 284 287 289 293 296 298 301 301 301 303 304 303 305 307 306 308 311 312 311 310 308 312 319 321 316 314 321 324 321 319 318 315 312 312 312 311 312 312 312
274 274 275 275 275 275 275 276 275 274 273 271 269 268 267 266 265 265 265 266 266 267 268 269 270 272 274 273 271 268 264 261 259 259 258 258 260 262 264 267 270 273 277 280 281 284 286 288 290 292 294 296 298 299 299 301 303 303 304 305 304 306 310 313 313 311 309 314 322 321 313 312 321 325 324 322 320 315 310 309 310 311 311 312 312
276 277 277 276 277 278 277 278 278 278 277 275 273 271 271 272 272 273 273 272 270 270 271 271 271 272 273 273 272 270 268 266 265 264 263 263 264 267 270 272 274 277 280 282 284 286 288 289 290 293 294 295 296 298 298 300 301 302 303 303 303 305 309 311 310 308 308 318 325 319 309 312 323 327 326 326 325 320 314 311 311 311 310 311 313
287 282 279 278 276 276 278 279 279 279 278 278 277 276 277 278 279 279 280 279 277 275 274 273 273 273 273 273 272 271 269 268 267 266 266 268 270 272 274 277 279 281 282 284 286 288 289 290 292 293 294 296 297 297 299 299 300 301 302 301 302 304 306 307 307 305 308 321 324 315 306 315 326 328 326 327 327 324 319 317 316 314 313 312 315
303 294 291 288 283 282 282 280 279 278 278 277 277 279 280 281 280 281 281 281 280 279 277 276 275 275 274 273 274 273 271 269 269 269 270 272 274 276 278 279 281 282 283 285 287 289 290 291 293 294 296 298 298 298 299 299 299 300 301 301 302 304 304 304 305 304 309 318 319 310 307 319 328 329 327 329 330 329 328 327 326 326 323 318 316
302 298 295 292 289 288 286 282 280 281 282 283 283 283 283 283 282 282 282 282 281 280 279 278 278 278 276 275 274 273 272 271 271 272 274 275 276 278 280 281 281 283 284 286 288 290 291 293 295 296 297 298 298 299 299 299 299 300 301 301 302 303 303 304 306 305 306 314 314 308 310 321 327 327 328 331 333 333 333 332 332 333 330 322 318
298 295 292 288 286 286 284 282 284 286 287 288 288 287 286 285 284 284 284 284 283 281 281 281 281 280 277 276 275 274 274 274 274 275 276 277 278 280 281 282 282 284 285 287 289 291 293 295 297 298 298 299 300 300 300 299 299 300 299 300 301 302 303 308 308 302 300 311 313 309 312 321 325 326 329 332 334 334 333 333 335 336 332 324 322